705  
ASUS42 KKEY 301810  
RWRKEY  
 
FLORIDA REGIONAL WEATHER ROUNDUP FOR THE FLORIDA KEYS  
NATIONAL WEATHER SERVICE KEY WEST FLORIDA  
200 PM EDT THU JUL 30 2015  
   
..SOUTH FLORIDA AND THE KEYS
 
 
 
CITY SKY/WX TMP DP RH WIND PRES REMARKS
 
FORT MYERS PTSUNNY 89 75 63 SW13G18 30.00F HX 99  
SW REGIONAL AP PTSUNNY 86 76 71 W13 30.01F HX 96  
NAPLES MOSUNNY 88 80 77 SW10 30.02F HX 104  
MIAMI PTSUNNY 92 66 42 SW10 30.01F HX 94  
WEST KENDALL CLOUDY 92 69 47 W9 30.02F HX 97  
HOMESTEAD CLOUDY 91 74 57 SW7 30.01F HX 101  
MARATHON CLOUDY 94 77 57 VRB6 30.03F HX 108  
BOCA CHICA NAS CLOUDY 87 74 64 SW6 30.04F HX 95  
KEY WEST INTL CLOUDY 87 74 64 SW5 30.04F HX 95  
   
..INTERNATIONAL WEATHER
 
 
 
CITY SKY/WX TMP DP RH WIND PRES REMARKS
 
NASSAU BAHAMAS CLOUDY 90 82 79 S12 30.06F HX 111  
CANCUN MEXICO MOSUNNY 90 72 55 E9 30.04F HX 96  
COZUMEL MEXICO MOSUNNY 88 73 62 E9 30.03F HX 96  
 
ADJACENT COASTAL WATERS...  
 
STATION/POSITION TIME SKY/WX TEMP WIND PRES WAVE
 
AIR SEA DIR/SP/G HT/PER  
(UTC) (F) (DEG/KT/KT) (MB) (FT/S)  
PULASKI SHOAL LI 1700 86 220/ 4/ 5 1018.0F  
SAND KEY 1750 85 230/ 5/ 7 1017.4F  
SOMBRERO KEY 1800 85 220/ 5/ 6 1017.9F  
LONG KEY 1700 86 90 330/ 3/ 4 1018.4F  
MOLASSES REEF 1800 86 88 230/ 7/ 8 1017.1F  
FOWEY ROCKS NOT AVBL  
 

 
 
CLICK HERE TO GO TO PREVIOUS BULLETINS.

The Nexlab FL Page Main Text Page